QPF
0.00 0.01 0.07 0.02 0.02 0.01 0.01 0.00 0.00 0.00 0.00 0.00 0.00 0.00 0.00 0.00 0.00 0.01 0.02 0.02 0.00 0.00 0.00 0.00 0.00 0.00 0.00 0.00 0.00 0.00 0.00 0.00 0.00 0.00 0.00 0.00 0.01 0.00 0.00 0.00 0.00 0.00 0.00
0.00 0.00 0.06 0.04 0.02 0.02 0.01 0.00 0.00 0.00 0.00 0.00 0.00 0.00 0.00 0.00 0.00 0.00 0.01 0.00 0.00 0.00 0.00 0.00 0.00 0.00 0.00 0.00 0.00 0.00 0.00 0.00 0.00 0.01 0.00 0.00 0.00 0.01 0.00 0.00 0.00 0.00 0.00
0.00 0.00 0.01 0.03 0.03 0.01 0.00 0.00 0.00 0.00 0.00 0.00 0.00 0.00 0.00 0.00 0.00 0.01 0.01 0.00 0.00 0.00 0.00 0.00 0.00 0.00 0.00 0.00 0.00 0.00 0.00 0.00 0.00 0.02 0.01 0.00 0.00 0.02 0.00 0.00 0.00 0.00 0.00
0.00 0.00 0.00 0.01 0.01 0.00 0.00 0.00 0.00 0.00 0.00 0.00 0.00 0.00 0.00 0.00 0.01 0.00 0.00 0.00 0.00 0.00 0.00 0.00 0.00 0.00 0.00 0.00 0.00 0.00 0.00 0.00 0.00 0.00 0.00 0.00 0.00 0.01 0.01 0.00 0.00 0.00 0.00
0.00 0.00 0.00 0.00 0.01 0.00 0.00 0.00 0.00 0.00 0.00 0.00 0.00 0.00 0.00 0.00 0.00 0.00 0.00 0.00 0.00 0.00 0.00 0.00 0.00 0.00 0.00 0.00 0.00 0.00 0.00 0.00 0.00 0.00 0.00 0.00 0.00 0.04 0.12 0.05 0.00 0.00 0.00
0.00 0.00 0.00 0.00 0.00 0.00 0.00 0.00 0.00 0.00 0.00 0.00 0.00 0.00 0.00 0.00 0.00 0.00 0.00 0.00 0.00 0.00 0.00 0.00 0.00 0.00 0.00 0.00 0.00 0.00 0.00 0.00 0.00 0.00 0.00 0.00 0.00 0.01 0.03 0.05 0.05 0.01 0.01
0.00 0.00 0.00 0.00 0.00 0.00 0.00 0.00 0.00 0.00 0.00 0.00 0.00 0.00 0.00 0.00 0.00 0.00 0.00 0.00 0.00 0.00 0.00 0.00 0.00 0.00 0.00 0.00 0.00 0.00 0.00 0.00 0.00 0.00 0.00 0.00 0.00 0.00 0.03 0.04 0.02 0.02 0.03
0.00 0.00 0.00 0.00 0.00 0.00 0.00 0.00 0.00 0.00 0.00 0.00 0.00 0.00 0.00 0.00 0.00 0.00 0.00 0.00 0.00 0.00 0.00 0.00 0.00 0.00 0.00 0.00 0.00 0.00 0.00 0.00 0.00 0.00 0.00 0.00 0.00 0.00 0.00 0.01 0.03 0.03 0.05
0.00 0.00 0.00 0.00 0.00 0.00 0.00 0.00 0.00 0.00 0.00 0.00 0.00 0.00 0.00 0.00 0.00 0.00 0.00 0.00 0.00 0.00 0.00 0.00 0.00 0.00 0.00 0.00 0.00 0.00 0.00 0.00 0.00 0.00 0.00 0.00 0.00 0.00 0.05 0.15 0.11 0.07 0.00
0.00 0.00 0.00 0.00 0.00 0.00 0.00 0.00 0.00 0.00 0.00 0.00 0.00 0.00 0.00 0.00 0.00 0.00 0.00 0.00 0.00 0.00 0.00 0.00 0.00 0.00 0.00 0.00 0.00 0.00 0.00 0.01 0.00 0.00 0.00 0.00 0.00 0.00 0.09 0.15 0.08 0.07 0.08
0.00 0.00 0.00 0.00 0.00 0.00 0.00 0.00 0.00 0.00 0.00 0.00 0.00 0.00 0.00 0.00 0.00 0.00 0.00 0.00 0.00 0.00 0.01 0.00 0.00 0.00 0.00 0.00 0.00 0.00 0.01 0.00 0.00 0.00 0.00 0.00 0.00 0.00 0.03 0.15 0.15 0.12 0.11
0.00 0.00 0.00 0.00 0.00 0.00 0.00 0.00 0.00 0.00 0.00 0.00 0.00 0.00 0.00 0.00 0.00 0.00 0.00 0.00 0.00 0.07 0.08 0.05 0.02 0.03 0.02 0.00 0.00 0.00 0.00 0.00 0.00 0.00 0.00 0.00 0.00 0.00 0.01 0.12 0.12 0.09 0.10
0.00 0.00 0.00 0.00 0.00 0.00 0.00 0.00 0.00 0.00 0.00 0.00 0.00 0.00 0.00 0.00 0.00 0.00 0.00 0.00 0.00 0.02 0.04 0.01 0.01 0.01 0.01 0.00 0.00 0.00 0.01 0.02 0.03 0.00 0.00 0.00 0.00 0.00 0.00 0.10 0.09 0.03 0.09
0.00 0.00 0.00 0.00 0.00 0.00 0.00 0.00 0.00 0.00 0.00 0.00 0.00 0.00 0.00 0.00 0.00 0.00 0.00 0.00 0.00 0.00 0.00 0.00 0.00 0.00 0.00 0.00 0.00 0.00 0.02 0.04 0.04 0.01 0.02 0.03 0.01 0.00 0.00 0.01 0.10 0.10 0.12
0.00 0.00 0.00 0.00 0.00 0.00 0.00 0.00 0.00 0.00 0.00 0.00 0.00 0.00 0.00 0.00 0.00 0.00 0.02 0.03 0.00 0.00 0.00 0.00 0.00 0.00 0.00 0.00 0.00 0.00 0.00 0.00 0.00 0.00 0.00 0.03 0.05 0.03 0.00 0.00 0.02 0.15 0.19
0.00 0.00 0.00 0.00 0.00 0.00 0.00 0.00 0.00 0.00 0.00 0.00 0.00 0.00 0.00 0.00 0.00 0.00 0.00 0.01 0.01 0.01 0.00 0.00 0.00 0.00 0.00 0.00 0.00 0.00 0.00 0.00 0.00 0.00 0.00 0.00 0.00 0.02 0.00 0.00 0.02 0.22 0.08
0.00 0.00 0.00 0.00 0.00 0.00 0.00 0.00 0.00 0.00 0.00 0.00 0.00 0.01 0.01 0.00 0.00 0.00 0.00 0.00 0.00 0.00 0.00 0.00 0.00 0.00 0.00 0.00 0.00 0.00 0.00 0.00 0.00 0.00 0.00 0.00 0.00 0.00 0.00 0.00 0.05 0.07 0.04
0.00 0.00 0.00 0.00 0.00 0.00 0.00 0.00 0.00 0.00 0.00 0.00 0.00 0.00 0.00 0.00 0.00 0.00 0.00 0.00 0.00 0.00 0.00 0.00 0.00 0.00 0.00 0.00 0.00 0.00 0.00 0.00 0.00 0.00 0.00 0.00 0.00 0.00 0.00 0.00 0.01 0.02 0.05
0.00 0.00 0.00 0.00 0.00 0.00 0.00 0.00 0.00 0.00 0.00 0.00 0.00 0.00 0.00 0.00 0.00 0.00 0.00 0.00 0.00 0.00 0.00 0.00 0.00 0.00 0.00 0.00 0.00 0.00 0.00 0.00 0.00 0.00 0.00 0.00 0.00 0.00 0.00 0.00 0.01 0.00 0.00
0.00 0.00 0.00 0.00 0.00 0.00 0.00 0.00 0.00 0.00 0.00 0.00 0.00 0.00 0.00 0.01 0.01 0.00 0.00 0.00 0.00 0.00 0.00 0.00 0.00 0.00 0.00 0.00 0.00 0.00 0.00 0.00 0.00 0.00 0.00 0.00 0.00 0.00 0.00 0.00 0.00 0.00 0.00
0.00 0.00 0.00 0.00 0.00 0.00 0.00 0.00 0.00 0.00 0.00 0.00 0.00 0.00 0.00 0.00 0.00 0.00 0.00 0.00 0.00 0.00 0.00 0.01 0.01 0.04 0.02 0.00 0.00 0.00 0.00 0.00 0.00 0.00 0.00 0.00 0.00 0.00 0.00 0.00 0.00 0.00 0.00
0.00 0.00 0.00 0.00 0.00 0.00 0.00 0.00 0.00 0.00 0.00 0.00 0.00 0.00 0.00 0.00 0.00 0.00 0.00 0.00 0.00 0.00 0.03 0.08 0.08 0.05 0.00 0.00 0.01 0.00 0.00 0.00 0.00 0.00 0.00 0.00 0.00 0.00 0.00 0.00 0.00 0.00 0.00
0.00 0.00 0.00 0.00 0.00 0.00 0.00 0.00 0.00 0.00 0.00 0.00 0.00 0.00 0.00 0.00 0.00 0.00 0.00 0.00 0.00 0.00 0.01 0.10 0.09 0.06 0.00 0.01 0.03 0.05 0.01 0.00 0.00 0.00 0.00 0.00 0.00 0.00 0.00 0.00 0.00 0.00 0.00
0.00 0.00 0.00 0.00 0.00 0.00 0.00 0.00 0.00 0.00 0.00 0.00 0.00 0.00 0.00 0.00 0.00 0.00 0.00 0.00 0.00 0.00 0.00 0.01 0.03 0.08 0.03 0.05 0.02 0.01 0.01 0.02 0.02 0.00 0.00 0.00 0.00 0.00 0.00 0.00 0.00 0.00 0.00
0.00 0.00 0.00 0.00 0.00 0.00 0.00 0.00 0.00 0.00 0.00 0.00 0.00 0.00 0.00 0.00 0.00 0.00 0.00 0.00 0.00 0.00 0.00 0.00 0.07 0.13 0.01 0.00 0.01 0.00 0.00 0.01 0.01 0.00 0.00 0.00 0.00 0.00 0.00 0.00 0.00 0.00 0.00
0.00 0.00 0.00 0.00 0.00 0.00 0.00 0.00 0.00 0.00 0.00 0.00 0.00 0.00 0.00 0.00 0.00 0.00 0.00 0.00 0.00 0.00 0.00 0.00 0.08 0.08 0.02 0.01 0.01 0.00 0.00 0.00 0.02 0.01 0.00 0.00 0.00 0.00 0.00 0.00 0.00 0.00 0.00
MSLP
1015.34 1015.31 1015.53 1015.55 1015.55 1015.72 1015.87 1016.06 1016.25 1016.39 1016.54 1016.79 1016.95 1017.07 1017.15 1017.18 1017.29 1017.37 1017.26 1017.26 1017.26 1017.40 1017.44 1017.52 1017.55 1017.53 1017.51 1017.57 1017.56 1017.60 1017.62 1017.64 1017.67 1017.79 1017.85 1017.94 1017.93 1017.93 1017.98 1018.06 1018.06 1017.77 1018.36
1015.19 1015.43 1015.87 1015.79 1015.88 1015.98 1016.14 1016.43 1016.62 1016.73 1016.92 1017.14 1017.31 1017.41 1017.44 1017.48 1017.53 1017.60 1017.54 1017.51 1017.55 1017.68 1017.78 1017.90 1017.93 1017.96 1017.95 1017.90 1017.89 1017.99 1017.89 1017.92 1017.90 1017.97 1018.02 1018.06 1018.05 1018.13 1018.22 1018.21 1018.14 1018.05 1018.54
1015.31 1015.56 1015.89 1016.06 1016.19 1016.30 1016.45 1016.67 1016.87 1017.06 1017.22 1017.46 1017.64 1017.69 1017.84 1017.92 1017.92 1017.84 1017.73 1017.80 1017.82 1017.88 1017.95 1018.02 1018.12 1018.25 1018.30 1018.24 1018.25 1018.23 1018.19 1018.20 1018.15 1018.14 1018.20 1017.91 1017.97 1018.33 1018.31 1018.31 1018.49 1018.54 1018.57
1015.35 1015.63 1015.82 1016.35 1016.42 1016.56 1016.79 1016.96 1017.12 1017.29 1017.52 1017.74 1017.77 1017.89 1018.15 1018.19 1018.18 1018.01 1018.05 1018.10 1018.14 1018.16 1018.22 1018.31 1018.36 1018.37 1018.41 1018.38 1018.37 1018.36 1018.43 1018.48 1018.40 1018.36 1018.20 1018.12 1017.93 1018.40 1018.38 1018.50 1018.67 1018.82 1018.88
1015.64 1015.86 1016.14 1016.52 1016.67 1016.89 1017.07 1017.18 1017.39 1017.59 1017.73 1017.84 1017.92 1018.17 1018.29 1018.33 1018.30 1018.27 1018.20 1018.35 1018.39 1018.37 1018.38 1018.44 1018.46 1018.48 1018.41 1018.39 1018.47 1018.51 1018.52 1018.52 1018.53 1018.30 1018.17 1018.31 1018.20 1018.37 1018.61 1018.63 1018.71 1018.86 1019.02
1015.85 1016.09 1016.56 1016.75 1016.86 1017.05 1017.27 1017.43 1017.65 1017.77 1017.94 1018.05 1018.21 1018.35 1018.38 1018.44 1018.46 1018.44 1018.44 1018.45 1018.50 1018.55 1018.56 1018.61 1018.57 1018.42 1018.37 1018.35 1018.36 1018.39 1018.35 1018.33 1018.39 1018.04 1018.14 1018.23 1018.14 1018.33 1018.51 1018.62 1018.57 1018.73 1019.05
1016.11 1016.35 1016.60 1016.97 1017.07 1017.21 1017.35 1017.59 1017.77 1017.96 1018.11 1018.23 1018.34 1018.46 1018.46 1018.52 1018.52 1018.46 1018.42 1018.50 1018.59 1018.58 1018.53 1018.54 1018.58 1018.43 1018.28 1018.23 1018.27 1018.29 1018.33 1018.28 1017.97 1017.83 1017.83 1017.86 1017.88 1018.27 1018.28 1018.26 1018.40 1018.52 1018.70
1016.23 1016.48 1016.71 1017.06 1017.13 1017.36 1017.48 1017.66 1017.86 1018.11 1018.29 1018.34 1018.39 1018.47 1018.51 1018.58 1018.60 1018.52 1018.48 1018.53 1018.58 1018.55 1018.46 1018.47 1018.42 1018.33 1018.22 1018.12 1018.08 1018.02 1017.97 1018.02 1017.71 1017.57 1017.56 1017.50 1017.67 1018.14 1018.07 1017.95 1018.10 1018.34 1018.42
1016.37 1016.64 1016.91 1016.84 1017.14 1017.41 1017.67 1017.84 1018.06 1018.21 1018.40 1018.44 1018.45 1018.53 1018.52 1018.55 1018.68 1018.59 1018.51 1018.52 1018.52 1018.47 1018.35 1018.30 1018.25 1018.21 1018.03 1017.96 1017.86 1017.76 1017.68 1017.69 1017.47 1017.33 1017.45 1017.30 1017.61 1017.94 1017.82 1017.79 1017.95 1018.12 1018.39
1016.60 1016.68 1016.95 1017.13 1017.07 1017.20 1017.30 1017.86 1018.08 1018.24 1018.37 1018.46 1018.47 1018.50 1018.50 1018.51 1018.50 1018.39 1018.36 1018.22 1018.38 1018.27 1018.12 1018.07 1018.00 1017.88 1017.77 1017.70 1017.66 1017.62 1017.58 1017.48 1017.49 1017.46 1017.47 1017.30 1017.61 1017.53 1017.50 1017.50 1017.67 1017.87 1018.02
1016.64 1016.80 1016.95 1017.09 1017.36 1017.50 1017.66 1017.77 1018.15 1018.24 1018.31 1018.42 1018.35 1018.44 1018.47 1018.17 1018.30 1018.30 1018.25 1018.25 1018.15 1018.06 1017.95 1017.81 1017.70 1017.57 1017.44 1017.29 1017.29 1017.31 1017.34 1017.13 1017.27 1017.26 1017.25 1017.08 1017.35 1017.25 1017.41 1017.45 1017.70 1017.94 1018.21
1016.15 1016.45 1016.71 1017.02 1017.20 1017.49 1017.50 1017.79 1017.89 1017.98 1018.03 1018.24 1018.30 1018.43 1018.39 1018.33 1018.42 1018.43 1018.24 1018.11 1017.98 1017.89 1017.68 1017.53 1017.40 1017.32 1017.23 1016.78 1016.79 1016.97 1016.77 1016.80 1016.71 1016.71 1016.90 1016.95 1016.88 1016.97 1017.11 1017.09 1017.27 1017.50 1017.99
1015.93 1016.31 1016.55 1016.90 1017.32 1017.36 1017.43 1017.64 1017.75 1017.91 1018.09 1018.17 1018.40 1018.44 1018.43 1018.34 1018.30 1018.23 1017.93 1017.71 1017.58 1017.47 1017.28 1016.92 1016.90 1016.70 1016.74 1016.72 1016.82 1016.66 1016.54 1016.59 1016.57 1016.40 1016.53 1016.63 1016.59 1016.55 1016.62 1016.70 1016.73 1016.95 1017.15
1015.80 1016.09 1016.35 1016.72 1017.22 1017.33 1017.50 1017.60 1017.64 1017.80 1017.94 1018.07 1018.07 1018.30 1018.35 1018.15 1018.06 1017.94 1017.63 1017.53 1017.49 1017.29 1017.19 1016.91 1016.69 1016.70 1016.59 1016.55 1016.62 1016.45 1016.32 1016.38 1016.41 1016.24 1016.02 1016.42 1016.13 1016.03 1016.04 1016.08 1016.22 1016.46 1016.90
1015.59 1015.87 1016.23 1016.57 1017.07 1017.27 1017.62 1017.54 1017.70 1017.76 1017.79 1017.78 1017.96 1018.04 1018.10 1018.02 1017.81 1017.64 1017.54 1017.53 1017.33 1017.10 1016.84 1016.87 1016.63 1016.44 1016.29 1016.10 1016.02 1016.12 1015.74 1015.60 1015.57 1015.60 1015.39 1015.61 1015.83 1015.79 1015.79 1015.88 1015.81 1015.86 1016.16
1015.26 1015.56 1016.01 1016.44 1016.74 1017.07 1017.27 1017.42 1017.48 1017.53 1017.55 1017.64 1017.59 1017.57 1017.81 1017.76 1017.63 1017.48 1017.39 1017.12 1017.04 1016.91 1016.70 1016.74 1016.54 1016.33 1016.13 1015.81 1015.60 1015.44 1015.41 1015.13 1014.89 1014.88 1014.66 1014.71 1015.21 1015.26 1015.37 1015.39 1015.43 1015.43 1015.66
1014.79 1015.31 1015.69 1016.12 1016.31 1016.80 1016.98 1017.14 1017.16 1017.24 1017.13 1017.19 1017.20 1017.31 1017.33 1017.44 1017.48 1017.45 1017.17 1016.87 1016.84 1016.87 1016.90 1016.75 1016.41 1016.08 1015.81 1015.40 1015.41 1015.02 1014.88 1014.66 1014.35 1014.29 1014.29 1014.29 1014.51 1014.96 1015.10 1015.16 1015.08 1015.12 1015.29
1014.61 1015.06 1015.53 1015.76 1016.02 1016.42 1016.63 1016.79 1016.85 1016.87 1016.91 1016.80 1016.80 1016.78 1016.89 1016.95 1017.01 1017.07 1016.89 1016.57 1016.68 1016.64 1016.51 1016.35 1016.18 1015.86 1015.61 1015.43 1015.33 1014.95 1014.66 1014.35 1014.23 1014.16 1014.15 1014.30 1014.48 1014.55 1014.89 1015.03 1014.99 1015.00 1015.06
1014.37 1014.79 1015.22 1015.63 1015.85 1016.14 1016.43 1016.59 1016.67 1016.68 1016.62 1016.51 1016.57 1016.48 1016.62 1016.64 1016.63 1016.76 1016.47 1016.44 1016.54 1016.29 1016.26 1016.28 1016.02 1016.05 1015.56 1015.34 1015.09 1014.85 1014.45 1014.06 1013.96 1013.84 1014.05 1014.33 1014.55 1014.57 1014.53 1014.88 1015.05 1014.81 1014.73
1013.95 1014.47 1014.81 1015.23 1015.58 1015.94 1016.26 1016.50 1016.38 1016.49 1016.35 1016.31 1016.26 1016.13 1016.24 1016.26 1016.38 1016.32 1016.12 1016.19 1016.19 1016.11 1016.05 1016.04 1016.21 1016.00 1015.81 1015.43 1015.12 1014.50 1014.18 1013.86 1013.95 1013.93 1013.96 1014.19 1014.45 1014.53 1014.48 1014.73 1014.66 1014.36 1014.65
1013.40 1013.99 1014.49 1014.86 1015.19 1015.72 1016.01 1016.18 1016.18 1016.09 1016.10 1016.02 1015.84 1015.87 1016.14 1015.90 1015.96 1016.07 1015.92 1015.83 1015.86 1016.06 1016.04 1015.99 1016.11 1015.95 1015.51 1015.48 1014.97 1014.22 1013.86 1013.76 1013.82 1013.83 1014.08 1014.21 1014.50 1014.51 1014.62 1014.71 1014.41 1014.33 1014.14
1012.81 1013.38 1013.94 1014.32 1014.79 1015.24 1015.58 1015.91 1016.03 1016.01 1015.76 1015.56 1015.47 1015.56 1015.55 1015.57 1015.64 1015.74 1015.75 1015.67 1015.75 1015.73 1015.70 1015.70 1015.84 1015.55 1015.30 1015.55 1015.15 1014.52 1013.58 1013.36 1013.62 1013.69 1014.32 1014.40 1014.40 1014.37 1014.52 1014.81 1014.74 1014.64 1014.42
1012.21 1012.65 1013.17 1013.75 1014.26 1014.76 1015.24 1015.78 1016.00 1016.06 1015.86 1015.48 1015.28 1015.19 1015.14 1015.26 1015.32 1015.40 1015.40 1015.36 1015.48 1015.57 1015.27 1015.47 1015.41 1015.39 1015.06 1015.30 1015.20 1015.20 1014.36 1013.65 1013.45 1013.77 1014.34 1014.57 1014.66 1014.89 1015.04 1014.76 1014.75 1014.77 1014.72
1011.20 1011.96 1012.63 1013.33 1013.82 1014.41 1015.02 1015.40 1015.56 1015.36 1015.13 1015.00 1015.15 1015.12 1015.07 1015.08 1015.14 1015.11 1015.08 1015.02 1015.04 1015.07 1015.17 1015.30 1015.17 1015.22 1015.48 1015.08 1014.89 1015.06 1015.28 1015.07 1014.58 1013.71 1014.37 1014.98 1015.19 1015.17 1015.19 1014.82 1014.78 1014.96 1014.98
1010.82 1011.29 1011.95 1012.78 1013.41 1013.85 1014.46 1014.90 1015.25 1015.32 1015.07 1015.05 1015.17 1015.18 1015.10 1014.99 1014.91 1014.74 1014.67 1014.72 1014.79 1014.76 1014.80 1014.81 1014.77 1014.92 1015.00 1014.87 1014.75 1014.62 1014.73 1014.82 1015.13 1015.17 1014.62 1014.91 1015.14 1015.40 1015.68 1015.33 1014.98 1014.79 1015.01
1010.44 1011.05 1011.55 1012.19 1012.75 1013.37 1013.92 1014.37 1014.73 1014.86 1014.93 1015.00 1015.00 1014.96 1014.82 1014.80 1014.75 1014.60 1014.45 1014.46 1014.40 1014.42 1014.48 1014.41 1014.67 1014.66 1014.68 1014.82 1014.74 1014.54 1014.38 1014.33 1014.51 1015.03 1015.08 1015.13 1015.27 1015.38 1015.79 1015.75 1015.24 1015.18 1015.41
Thickness
5778 5780 5779 5778 5777 5775 5774 5773 5771 5770 5769 5767 5766 5765 5764 5765 5763 5762 5763 5763 5763 5763 5763 5762 5761 5761 5760 5758 5758 5757 5756 5755 5755 5753 5752 5751 5750 5749 5748 5747 5748 5749 5744
5781 5780 5777 5777 5776 5775 5774 5771 5769 5769 5767 5767 5765 5765 5764 5764 5763 5763 5764 5765 5765 5764 5761 5760 5759 5758 5757 5756 5756 5754 5754 5753 5753 5752 5752 5751 5750 5748 5747 5746 5747 5748 5744
5783 5781 5778 5777 5775 5774 5773 5771 5769 5768 5767 5766 5764 5764 5762 5761 5762 5764 5765 5765 5765 5763 5761 5760 5758 5756 5755 5755 5755 5754 5753 5751 5751 5750 5750 5751 5750 5747 5747 5746 5744 5742 5744
5784 5782 5780 5776 5775 5774 5772 5770 5769 5767 5766 5765 5765 5764 5762 5761 5762 5764 5765 5765 5763 5762 5761 5759 5758 5757 5755 5755 5755 5754 5753 5751 5750 5748 5749 5749 5749 5745 5745 5743 5741 5740 5739
5784 5782 5779 5776 5776 5774 5772 5770 5768 5767 5766 5766 5766 5765 5763 5763 5764 5765 5765 5764 5763 5762 5761 5759 5758 5758 5757 5757 5755 5754 5753 5751 5749 5750 5749 5746 5746 5745 5743 5741 5739 5738 5736
5784 5782 5777 5776 5776 5775 5773 5771 5769 5768 5767 5767 5766 5766 5765 5765 5765 5765 5766 5765 5764 5762 5761 5760 5760 5760 5759 5757 5756 5754 5753 5751 5750 5750 5748 5747 5746 5744 5741 5740 5739 5737 5735
5785 5782 5778 5777 5777 5776 5775 5772 5770 5768 5769 5769 5768 5767 5767 5767 5767 5768 5768 5767 5766 5766 5765 5763 5761 5760 5760 5758 5756 5754 5753 5751 5753 5753 5752 5751 5749 5745 5744 5743 5740 5737 5735
5786 5783 5780 5778 5779 5777 5776 5773 5772 5771 5770 5770 5770 5769 5769 5769 5769 5770 5770 5769 5768 5767 5766 5765 5764 5763 5762 5761 5758 5758 5756 5755 5756 5755 5754 5753 5751 5746 5746 5744 5742 5739 5737
5786 5784 5781 5781 5780 5779 5776 5774 5773 5772 5772 5772 5772 5772 5772 5771 5770 5771 5772 5771 5769 5769 5768 5767 5766 5764 5765 5765 5763 5760 5760 5758 5756 5756 5753 5753 5749 5746 5746 5744 5741 5738 5735
5787 5785 5782 5781 5782 5782 5782 5777 5775 5774 5774 5774 5775 5774 5774 5774 5774 5775 5774 5774 5771 5771 5772 5770 5769 5768 5768 5767 5765 5763 5761 5759 5757 5755 5753 5752 5749 5748 5746 5744 5740 5737 5733
5788 5788 5785 5783 5782 5782 5782 5780 5777 5775 5776 5776 5777 5777 5777 5779 5778 5777 5777 5776 5775 5774 5773 5773 5772 5773 5772 5772 5770 5767 5764 5763 5760 5758 5756 5756 5752 5750 5746 5744 5739 5734 5729
5790 5791 5790 5786 5785 5784 5785 5783 5781 5779 5779 5778 5778 5778 5778 5778 5777 5777 5778 5778 5778 5776 5776 5775 5775 5775 5774 5775 5773 5771 5770 5768 5766 5765 5761 5759 5757 5755 5751 5747 5744 5739 5734
5795 5794 5793 5789 5786 5787 5787 5786 5784 5781 5780 5781 5780 5779 5779 5779 5779 5779 5780 5781 5781 5781 5780 5781 5779 5779 5778 5776 5773 5773 5772 5770 5767 5766 5764 5761 5759 5757 5754 5751 5748 5743 5740
5796 5796 5796 5793 5789 5789 5788 5787 5786 5784 5783 5782 5782 5781 5781 5782 5782 5782 5784 5784 5784 5784 5783 5783 5782 5780 5780 5778 5776 5775 5774 5771 5767 5766 5766 5762 5763 5761 5758 5754 5750 5745 5739
5798 5799 5798 5795 5792 5791 5789 5789 5788 5787 5786 5786 5784 5783 5783 5784 5785 5786 5786 5786 5786 5787 5787 5785 5783 5783 5783 5783 5782 5778 5778 5776 5774 5772 5771 5768 5765 5762 5759 5755 5751 5747 5742
5803 5802 5801 5798 5795 5793 5792 5791 5790 5790 5790 5788 5787 5787 5786 5786 5787 5788 5788 5790 5789 5789 5789 5787 5786 5784 5785 5786 5785 5782 5781 5781 5781 5779 5779 5776 5770 5767 5763 5759 5755 5750 5744
5808 5806 5804 5801 5799 5796 5795 5794 5794 5793 5793 5792 5792 5790 5789 5789 5788 5788 5790 5792 5791 5790 5788 5787 5788 5788 5789 5788 5786 5786 5786 5786 5787 5786 5782 5779 5775 5769 5765 5760 5756 5751 5745
5812 5808 5807 5805 5803 5800 5798 5796 5795 5795 5795 5795 5794 5794 5793 5792 5792 5791 5792 5794 5792 5791 5791 5790 5791 5790 5789 5789 5787 5789 5789 5789 5788 5785 5782 5779 5774 5769 5763 5758 5754 5750 5746
5815 5813 5810 5806 5805 5803 5800 5798 5796 5796 5796 5797 5796 5796 5795 5794 5794 5793 5795 5795 5793 5794 5793 5791 5793 5789 5789 5789 5790 5790 5792 5793 5791 5788 5784 5778 5772 5767 5762 5756 5751 5749 5746
5818 5816 5815 5811 5808 5806 5803 5799 5798 5797 5797 5797 5797 5798 5796 5796 5795 5796 5797 5797 5796 5796 5795 5793 5789 5790 5788 5788 5788 5792 5795 5796 5793 5790 5786 5779 5772 5767 5761 5755 5751 5748 5743
5821 5818 5815 5812 5810 5806 5803 5799 5798 5796 5798 5799 5800 5800 5798 5799 5799 5798 5799 5799 5798 5796 5795 5794 5791 5788 5788 5789 5787 5791 5795 5797 5794 5791 5784 5778 5771 5765 5759 5753 5750 5746 5743
5824 5821 5818 5816 5813 5809 5806 5803 5801 5800 5801 5801 5800 5801 5801 5801 5800 5799 5800 5800 5799 5798 5798 5797 5792 5789 5790 5788 5783 5786 5784 5791 5792 5790 5781 5776 5771 5763 5755 5748 5745 5741 5738
5827 5825 5823 5819 5817 5813 5809 5804 5801 5800 5799 5799 5801 5803 5804 5803 5802 5802 5801 5801 5800 5798 5799 5797 5796 5791 5789 5789 5789 5782 5779 5779 5786 5788 5779 5773 5766 5757 5751 5747 5742 5737 5733
5835 5833 5827 5822 5818 5814 5809 5804 5800 5799 5797 5801 5801 5804 5805 5804 5803 5803 5802 5802 5801 5801 5799 5796 5798 5794 5789 5785 5790 5789 5783 5781 5773 5776 5777 5767 5759 5753 5747 5744 5738 5731 5726
5838 5835 5831 5825 5819 5817 5811 5806 5801 5796 5800 5802 5801 5801 5803 5803 5803 5803 5803 5802 5802 5801 5800 5799 5798 5796 5794 5790 5789 5788 5785 5782 5776 5765 5763 5761 5758 5749 5740 5738 5733 5727 5721
5839 5834 5832 5827 5822 5820 5815 5810 5804 5800 5799 5798 5798 5798 5801 5803 5803 5803 5803 5802 5802 5801 5800 5801 5799 5798 5795 5792 5791 5789 5786 5781 5776 5766 5759 5754 5749 5745 5737 5731 5729 5721 5714